Vorticity
3 5 6 7 7 7 7 6 5 4 4 3 3 3 2 2 3 3 3 3 4 4 4 4 3 3 3 3 3 3 3 4 4 4 4 4 4 4 5 6 6 6 6 5 5 5 7 8 7 7 6 6 6 5 5 5 4 4 4 5 6 7 7 7 6 5 4 5 5 6 6 6 5 5 4 3 3 3 3 3 3 3 3 3 3 3 3 3 2 2 2 2 2 2 2 2 2 3 3 3 4 4 4
3 4 5 6 7 7 7 5 5 4 4 3 3 3 3 3 3 3 3 3 4 4 4 4 3 3 3 3 3 3 3 4 4 4 4 4 4 5 5 6 6 6 6 5 5 6 7 7 7 6 6 6 5 5 5 5 4 4 4 5 6 7 7 6 5 4 4 4 5 5 5 5 4 3 2 2 2 2 2 2 2 3 3 3 3 3 3 3 3 3 2 2 2 2 2 2 3 3 3 4 4 4 4
3 4 5 6 6 6 6 5 4 4 4 3 3 3 3 3 3 3 3 3 4 4 4 4 3 3 3 3 3 3 3 4 4 4 4 4 4 5 5 6 6 6 6 5 5 6 7 7 7 6 6 5 5 5 5 5 4 4 5 6 7 7 7 6 4 4 3 4 5 5 5 4 3 2 1 1 1 1 1 1 2 2 3 3 3 3 3 3 3 3 3 2 2 2 3 3 3 3 4 4 4 4 4
3 3 4 5 6 6 6 5 4 4 4 3 3 3 3 3 3 3 3 3 4 4 4 4 4 3 3 3 3 3 4 4 4 4 4 4 5 5 5 6 6 6 6 6 5 5 6 7 6 6 6 5 5 5 5 5 4 4 5 6 7 7 7 5 4 3 3 3 4 4 5 4 3 2 1 1 1 1 1 1 2 2 2 3 3 3 3 3 3 3 2 2 2 3 3 3 3 3 4 3 3 3 3
3 3 4 5 5 5 6 5 5 4 4 3 3 3 4 4 3 3 3 3 4 4 4 4 4 3 3 3 3 3 4 4 4 4 4 4 5 5 6 6 6 7 6 6 5 5 6 6 6 6 6 5 5 5 5 4 4 4 5 6 7 7 6 5 4 3 3 3 3 4 4 4 3 3 2 2 2 2 2 2 2 2 3 3 3 3 3 3 3 3 2 2 3 3 3 3 3 3 3 3 3 3 3
4 4 4 4 5 5 5 5 5 4 4 3 3 3 4 4 4 3 3 4 4 4 4 4 4 3 3 3 3 4 4 4 4 4 4 4 5 5 6 6 7 7 6 5 5 5 6 6 7 6 6 5 5 5 5 4 4 4 5 6 7 7 6 5 4 3 2 2 3 3 4 4 4 3 3 3 3 3 3 3 4 4 4 4 4 3 3 3 3 3 3 3 3 3 4 4 4 3 3 2 2 2 2
4 4 4 4 5 5 5 5 5 5 4 4 4 3 4 4 4 4 4 4 4 4 4 4 4 3 3 3 4 4 4 4 4 4 4 5 5 6 6 7 7 7 6 5 5 5 6 7 7 6 6 5 5 5 5 4 4 4 6 6 7 7 6 5 4 3 2 2 2 3 3 4 4 4 4 4 4 4 5 5 6 6 6 5 5 5 4 4 4 4 4 4 4 4 4 4 4 3 3 2 2 2 2
4 4 4 4 5 5 5 5 5 5 4 4 4 4 4 4 4 4 4 4 4 4 4 4 4 3 3 4 4 4 4 4 4 4 4 5 5 6 7 7 7 7 6 5 5 5 7 7 7 6 5 5 5 5 5 4 4 5 6 7 7 6 5 4 3 3 2 2 2 3 3 4 4 4 4 4 5 5 6 7 7 7 8 7 7 7 6 6 6 6 5 5 5 5 5 5 4 3 3 2 2 2 2
4 4 5 5 5 5 5 5 5 5 5 4 4 4 4 4 4 4 4 4 4 4 4 4 4 3 3 4 4 4 5 5 4 4 4 5 6 6 7 7 7 6 6 5 5 6 7 7 7 6 5 5 5 5 5 4 4 5 6 7 7 6 5 4 3 3 2 2 2 3 3 4 4 4 3 4 4 5 6 7 7 8 8 8 8 8 7 7 7 7 7 7 6 6 6 5 4 3 3 2 2 2 1
4 4 4 4 5 5 5 5 5 5 5 5 4 4 4 4 4 4 4 4 4 4 4 4 4 3 3 4 4 4 5 5 5 4 4 5 6 7 7 7 7 6 6 5 5 6 8 7 6 5 5 5 5 5 5 4 4 5 6 7 7 6 5 4 3 3 2 2 2 3 3 3 3 3 3 3 3 4 5 5 6 6 7 7 7 7 7 8 8 8 8 7 7 7 6 6 5 4 3 2 2 2 2
4 4 4 4 4 4 5 5 5 5 5 5 4 4 4 4 4 4 4 4 4 4 4 4 4 3 3 4 4 5 5 5 5 4 5 5 6 7 7 7 7 6 5 5 5 6 7 7 6 5 5 5 6 5 5 4 4 5 6 7 7 6 4 4 3 3 2 2 2 3 3 3 3 2 2 2 2 2 3 3 3 4 4 4 5 5 6 6 6 7 7 7 7 7 6 6 5 4 4 3 3 2 2
4 4 3 4 4 4 4 4 5 5 5 5 4 4 4 4 4 4 4 4 4 4 4 4 4 3 3 4 4 5 5 5 5 5 5 6 6 7 7 7 7 7 6 5 6 6 7 6 5 5 5 5 6 5 4 4 4 5 6 7 7 6 4 3 3 2 2 2 2 2 3 3 3 2 2 1 1 1 1 1 1 1 1 2 2 3 3 4 4 5 5 6 6 6 6 6 5 5 4 4 3 3 3
4 4 4 3 4 4 4 4 4 5 5 5 5 4 4 5 5 5 5 5 5 5 4 4 4 4 3 4 4 5 5 5 5 5 5 6 6 7 7 7 7 7 6 5 6 6 7 6 5 5 5 5 5 5 4 4 4 5 6 7 6 5 4 3 3 2 2 2 2 2 3 3 2 2 1 1 1 0 0 -0 -0 -0 -0 -0 0 0 1 1 2 2 3 4 4 5 5 6 5 5 5 4 4 4 3
4 4 4 4 4 4 4 4 4 4 5 5 5 5 5 5 5 5 5 5 5 5 5 4 4 4 4 4 4 4 5 5 5 5 5 6 7 7 7 8 7 7 6 5 6 6 6 6 5 5 5 5 5 5 4 4 4 5 6 7 6 5 4 3 3 2 2 2 2 2 3 3 2 2 1 1 1 1 0 -0 -0 -1 -1 -1 -1 -1 -0 -0 0 1 1 2 3 3 4 5 5 5 5 5 5 4 4
4 5 5 4 4 4 4 4 4 4 5 5 5 5 5 5 5 5 5 5 5 5 5 4 4 4 4 4 4 4 5 5 5 5 5 6 7 7 8 8 8 7 6 5 5 6 6 6 5 5 5 5 5 5 4 4 4 5 6 6 6 5 4 3 3 2 2 2 2 2 3 3 2 2 2 1 1 1 1 0 -0 -0 -1 -1 -1 -1 -1 -1 -1 -0 -0 0 1 2 3 3 4 4 5 5 5 5 5
5 5 5 5 5 4 4 4 4 4 4 5 5 5 5 5 5 5 5 5 5 5 5 4 4 4 4 4 4 5 5 5 5 5 5 6 6 7 8 8 8 7 6 5 5 6 6 5 5 5 5 5 5 5 4 4 4 5 6 6 6 5 4 3 3 2 2 2 2 2 2 2 2 2 2 2 2 1 1 1 0 0 -0 -0 -0 -0 -0 -0 -0 -0 -0 -0 0 1 1 2 3 4 4 5 5 5 5
5 5 5 5 5 5 5 5 5 4 4 5 5 5 5 5 5 5 5 5 5 5 5 5 4 4 4 4 5 5 5 5 5 5 5 6 6 7 8 8 8 7 6 5 5 6 6 5 5 5 5 5 5 5 4 4 4 5 6 6 5 5 4 3 3 3 2 2 2 2 2 2 2 2 2 2 2 2 1 1 1 1 1 0 0 0 0 0 -0 -0 -0 -0 -0 0 1 1 2 3 4 4 5 5 6
5 5 6 6 6 6 5 5 5 5 5 5 5 5 5 5 5 5 5 5 5 5 5 5 4 4 4 5 5 5 5 5 5 5 5 6 7 7 8 8 8 7 6 5 6 6 6 5 5 5 5 5 5 5 4 4 4 5 6 6 5 4 4 3 3 3 2 2 2 2 2 2 2 2 2 2 2 2 2 1 1 1 1 1 1 1 1 1 1 0 0 0 0 0 0 1 1 2 3 4 4 5 5
5 5 6 6 6 6 6 6 5 5 5 5 5 5 5 5 5 5 5 5 5 5 5 5 4 4 4 5 5 5 5 5 5 5 5 6 7 8 9 9 8 7 6 6 6 6 6 5 5 5 5 6 6 5 4 4 4 5 6 6 5 4 4 3 3 3 2 2 2 2 2 2 2 2 2 2 2 2 2 1 1 1 1 1 1 1 1 1 1 1 1 0 0 0 0 1 1 1 2 3 4 4 5
5 6 6 7 7 7 6 6 6 5 5 5 5 5 5 5 5 5 5 5 5 5 5 5 4 4 4 5 5 5 5 5 5 5 5 6 7 8 9 9 8 7 6 6 6 6 5 5 4 5 6 6 6 5 4 4 4 5 6 6 5 4 4 3 3 3 2 2 2 2 3 3 2 2 2 2 2 2 2 1 1 1 1 1 1 2 2 2 1 1 1 1 1 1 0 1 1 1 2 2 3 4 4
4 6 7 7 8 7 7 7 6 6 5 5 5 5 5 5 5 5 5 5 5 5 5 5 4 4 4 5 5 5 5 5 5 5 5 6 7 8 10 9 9 8 6 6 6 5 5 4 5 5 6 6 6 5 4 4 4 5 6 6 5 5 4 4 3 3 2 2 2 3 3 3 2 2 2 2 2 2 2 1 1 1 1 1 2 2 2 2 2 2 1 1 1 1 1 1 1 1 1 2 2 3 4
4 5 6 7 8 8 8 7 7 6 6 5 5 5 5 5 5 5 5 5 5 5 5 5 5 4 4 5 5 5 5 5 5 5 5 6 7 9 10 10 9 8 6 6 5 5 5 5 5 6 6 6 5 4 4 4 4 5 6 6 5 5 4 4 3 3 2 2 3 4 3 3 2 2 2 2 2 2 2 1 1 1 1 1 2 2 2 2 2 2 2 2 1 1 1 1 1 1 1 1 2 3 3
4 5 6 7 8 8 8 7 7 7 6 6 6 5 5 5 5 5 5 5 5 5 5 5 5 5 4 5 5 5 5 5 5 5 5 6 7 9 10 10 9 8 7 6 5 5 5 5 5 6 7 6 5 4 3 4 4 5 5 5 5 5 4 4 3 3 3 3 4 4 3 3 2 2 2 2 2 2 1 1 1 1 1 1 1 2 2 2 2 2 2 2 2 1 1 1 1 1 1 1 2 2 3
3 4 6 7 8 8 8 8 7 7 7 6 6 6 5 5 5 5 5 5 5 5 5 5 5 5 5 5 5 5 5 5 5 5 5 6 7 9 11 10 10 8 7 5 5 5 5 5 6 6 6 5 4 3 3 3 4 4 5 5 5 5 4 4 4 3 3 4 4 4 3 2 2 2 2 2 2 1 1 1 1 1 1 1 1 2 2 2 2 2 2 2 2 2 2 2 1 1 1 1 1 2 2
4 4 5 6 7 8 8 8 7 7 7 7 6 6 6 6 5 5 5 5 6 6 6 5 5 5 4 5 5 5 5 5 5 5 5 6 7 9 11 11 10 8 6 5 5 5 5 5 6 6 5 5 4 3 3 3 4 4 5 5 5 5 4 4 4 4 4 4 4 3 3 3 2 2 2 2 2 1 1 1 1 1 1 1 1 1 2 2 2 2 2 2 2 2 2 2 2 1 1 1 1 2 2
5 5 5 6 7 8 8 8 8 8 8 7 7 7 6 6 6 6 6 6 6 6 6 5 5 5 4 4 5 5 5 5 5 5 6 6 8 9 11 11 10 8 7 5 5 5 5 5 5 5 5 4 4 3 3 3 4 4 5 5 5 5 4 4 3 3 4 4 4 3 3 3 2 2 2 2 2 1 1 1 1 1 1 1 1 1 1 2 2 2 2 2 2 2 2 2 2 2 1 1 1 1 2
6 5 5 6 7 8 8 8 8 8 8 8 8 7 7 7 7 6 6 6 6 5 5 5 5 5 4 4 5 5 5 5 5 5 6 7 8 10 12 11 10 8 6 5 5 5 5 5 5 5 4 4 4 4 4 4 4 5 5 5 4 4 3 3 3 3 4 4 4 3 3 3 2 2 2 2 2 1 1 1 1 1 0 1 1 1 1 1 2 2 2 2 2 2 2 2 2 2 2 1 1 1 2
6 6 6 6 6 7 8 8 8 8 9 8 8 8 8 7 7 7 6 6 6 6 5 5 5 5 4 5 5 5 5 5 5 5 6 7 9 11 12 11 10 8 6 5 5 5 5 5 5 5 5 4 4 4 4 4 4 4 4 3 3 3 3 4 4 4 4 4 4 3 3 3 2 2 2 2 2 2 1 1 1 1 1 1 1 1 1 1 2 2 2 2 2 2 2 2 2 2 2 2 1 1 2
7 6 6 6 6 7 8 8 9 9 9 9 9 8 8 8 7 7 6 6 6 6 6 5 5 5 4 5 5 5 5 5 5 5 6 7 9 11 13 11 9 7 6 5 5 5 5 5 6 6 6 5 5 5 4 4 3 3 2 2 3 3 5 6 6 5 5 4 4 3 3 3 3 2 2 2 2 2 1 1 1 1 1 1 1 1 1 2 2 2 2 2 2 2 2 3 3 2 2 2 1 1 1
7 6 6 6 6 6 7 8 9 9 9 9 9 8 8 8 7 7 6 6 6 6 6 5 5 5 5 5 5 5 5 5 5 6 6 8 10 12 13 11 9 7 6 5 5 5 5 6 7 7 7 6 5 5 4 3 3 2 2 2 3 4 6 6 6 5 4 4 3 3 3 3 3 3 2 2 2 2 2 2 1 1 1 1 1 1 2 2 2 2 2 2 2 2 2 3 3 3 2 2 2 1 1
6 6 6 6 6 6 6 7 8 9 9 9 9 8 8 7 7 7 6 6 6 6 6 5 5 5 5 5 5 5 5 5 5 6 7 8 11 13 13 11 9 7 6 5 5 6 6 6 7 7 7 6 5 4 4 3 2 2 2 2 3 5 6 6 6 5 4 4 4 3 3 3 3 3 2 2 2 2 2 2 2 2 1 1 2 2 2 2 2 2 2 2 2 2 3 3 3 3 2 2 2 1 1
6 6 6 6 6 6 6 7 8 8 9 8 8 8 7 7 7 7 6 6 6 6 6 5 5 5 5 5 5 5 5 5 6 7 7 9 11 13 13 11 8 7 6 5 6 6 6 6 6 7 7 6 5 4 3 2 2 2 2 2 3 4 6 7 6 6 5 4 4 4 4 3 3 3 2 2 2 2 2 2 2 2 2 2 2 2 2 3 3 2 2 2 2 2 3 3 3 3 3 2 2 2 1
6 6 6 6 6 6 6 7 7 7 8 8 8 8 7 7 7 6 6 6 6 6 5 5 5 5 5 5 5 5 5 6 7 7 8 10 12 13 12 10 8 6 5 5 5 5 5 5 5 5 5 4 3 2 0 -0 -0 1 2 3 3 5 6 7 6 6 5 5 4 4 4 3 3 3 3 3 3 2 3 3 3 3 3 3 3 3 3 3 3 3 3 2 2 3 3 3 3 3 3 2 2 2 2
6 6 6 6 6 6 6 7 7 7 8 8 8 7 7 7 6 6 6 6 5 5 5 5 5 5 5 5 5 5 6 6 7 8 9 11 12 13 11 9 7 6 5 4 4 3 3 2 1 0 -0 -1 -1 -2 -2 -0 1 1 2 3 4 5 6 6 6 6 5 5 4 4 4 3 3 3 3 3 3 3 3 3 3 3 3 3 3 3 3 3 3 3 3 3 3 3 3 3 3 3 3 2 2 2 2
6 6 6 5 5 6 6 6 7 7 7 8 8 8 7 7 6 6 6 5 5 5 5 5 5 5 5 5 5 6 6 7 7 9 10 12 12 12 11 8 6 5 3 3 2 1 0 -0 -1 -1 -1 -1 0 2 4 5 4 2 2 3 4 5 6 6 7 7 6 6 5 4 4 4 4 3 3 3 3 3 3 3 3 3 3 3 3 3 3 3 3 3 3 3 3 3 3 3 3 3 3 3 2 2 2
6 7 6 6 5 5 6 6 7 7 7 8 8 8 8 7 6 5 5 5 5 5 5 5 5 6 6 6 6 6 6 7 8 10 12 12 12 11 9 7 5 4 2 1 1 0 0 1 2 4 6 7 9 9 8 6 3 2 3 4 5 6 6 7 8 8 7 7 6 5 5 4 4 4 4 3 3 3 3 3 3 3 3 3 3 3 3 3 3 3 3 3 3 3 3 3 3 3 3 3 2 2 2
7 7 7 6 6 5 6 6 7 7 7 8 8 8 8 7 6 5 5 5 5 5 5 5 6 6 5 6 6 6 6 7 9 10 13 13 12 10 8 6 4 2 1 0 0 1 2 3 6 8 11 12 11 10 7 5 4 5 7 7 7 6 6 7 8 8 7 7 7 6 5 5 5 4 4 4 4 4 3 4 3 3 3 3 3 3 3 3 3 3 3 3 3 3 3 3 3 3 3 3 2 2 2
7 7 7 7 6 6 6 6 7 7 7 8 8 8 7 6 6 5 5 5 5 5 5 5 6 6 6 6 6 6 7 8 10 11 12 12 11 9 7 5 3 1 0 -0 1 2 3 4 6 8 10 10 9 9 9 9 9 9 9 7 6 5 5 5 6 6 7 6 6 6 6 5 5 5 5 4 4 4 4 4 4 4 4 4 3 3 3 3 3 3 4 4 3 3 3 3 3 3 3 3 2 2 2
6 7 7 7 7 7 7 7 7 7 7 7 8 7 7 6 5 5 4 4 5 5 5 5 6 6 6 6 6 7 8 9 11 12 12 11 10 8 6 4 2 1 0 1 1 2 3 4 6 7 9 10 12 13 13 11 10 8 6 5 3 3 3 4 5 5 6 6 6 6 6 6 5 5 5 5 5 4 4 4 4 4 4 4 4 4 3 4 4 4 4 4 4 4 3 3 3 3 3 3 3 2 2
6 6 7 7 7 7 7 7 7 7 7 7 7 7 7 6 5 5 5 5 5 5 5 5 6 6 6 6 7 8 9 11 12 12 12 10 9 7 6 4 2 1 1 2 2 3 4 4 6 7 9 10 11 11 10 8 7 5 3 2 1 2 2 3 4 5 5 5 5 5 6 6 6 5 5 5 5 5 4 4 4 4 4 4 4 4 4 4 4 4 4 4 4 4 3 3 3 4 4 3 3 2 2
5 6 6 6 7 7 7 7 6 6 6 7 7 7 7 6 5 5 5 5 5 5 5 5 5 5 6 6 8 9 10 12 12 12 11 9 8 7 6 4 3 2 2 3 3 4 4 5 5 5 6 6 6 5 5 5 4 2 0 -0 0 1 2 3 4 4 4 4 5 5 6 6 6 6 5 5 5 5 5 5 4 4 4 4 4 4 4 4 4 4 4 4 4 4 3 3 4 4 4 3 3 2 2
5 5 6 6 6 7 7 6 6 6 6 6 7 7 7 6 6 5 5 5 5 5 5 6 5 5 6 7 9 10 11 12 12 11 10 8 7 6 5 4 3 3 3 3 4 4 4 4 3 3 3 2 2 3 3 3 1 -0 -1 0 1 1 2 3 3 3 4 4 5 5 5 6 6 5 5 5 5 5 5 5 5 4 4 4 4 4 4 4 4 4 4 4 4 3 3 3 4 4 4 3 3 2 2
4 5 5 6 6 6 7 6 6 6 6 6 6 7 7 7 6 6 6 6 6 6 6 6 6 6 7 8 10 11 12 12 11 10 8 7 6 5 4 4 4 4 4 4 4 3 3 2 2 3 3 3 3 3 3 0 -1 -1 1 3 3 3 3 3 3 3 3 4 4 5 5 5 5 5 5 5 5 5 5 5 5 4 4 4 4 4 4 4 4 4 4 4 4 3 3 4 4 4 4 3 3 2 2
5 5 5 6 6 6 6 6 6 6 6 6 6 7 7 7 7 7 6 6 6 6 6 6 6 7 8 10 11 11 12 11 10 9 7 6 5 4 4 4 4 4 5 4 4 3 3 2 3 4 5 5 5 3 0 -2 -2 1 5 6 6 5 4 3 3 3 3 4 4 4 4 4 4 4 4 4 4 4 4 4 4 4 4 4 4 4 4 4 4 4 4 4 3 3 4 4 4 4 4 3 3 2 2
5 5 5 6 6 6 6 6 5 5 5 6 6 7 7 7 7 7 7 6 6 6 6 6 7 8 10 11 11 11 11 9 8 7 6 5 4 4 4 4 5 5 5 5 4 4 3 3 4 5 6 5 3 1 -1 -0 2 5 9 10 9 7 5 4 3 3 3 3 3 3 3 4 4 4 4 4 4 4 4 4 4 4 4 4 4 4 4 4 4 4 4 4 3 4 4 4 4 4 4 3 3 2 2
5 5 6 6 6 6 6 5 5 5 5 6 6 6 7 7 7 7 7 6 6 6 6 7 8 10 12 13 12 11 10 9 8 6 5 4 4 4 4 4 4 4 4 4 4 3 2 3 3 4 4 4 4 4 5 7 10 12 14 13 11 8 6 4 3 3 3 3 3 3 3 3 3 3 3 3 4 4 3 3 3 3 3 3 3 4 4 4 4 4 3 3 4 4 4 4 5 5 4 4 3 3 3
5 6 6 6 6 6 6 5 5 5 5 5 6 6 6 7 7 7 7 6 6 6 7 8 10 12 13 13 12 11 9 8 7 6 5 4 4 3 3 3 3 3 3 3 2 2 2 2 3 3 3 5 8 12 14 16 17 17 16 14 11 9 6 5 4 3 3 3 3 3 3 3 3 3 3 3 3 3 3 3 3 3 3 3 3 3 4 4 4 4 4 4 4 4 4 5 5 5 4 4 3 3 3
6 6 6 6 6 6 6 6 5 5 5 5 6 6 6 6 7 7 6 6 6 7 8 10 12 13 13 12 11 9 8 7 6 5 4 4 3 3 2 2 3 3 3 3 3 3 3 4 3 3 4 8 12 16 18 19 18 18 16 14 11 9 7 6 5 4 4 3 3 3 3 3 3 3 3 3 3 3 3 3 3 3 3 3 3 4 4 4 4 4 4 4 4 5 5 5 5 5 4 4 4 4 4
6 6 6 6 6 6 6 6 6 5 5 5 6 6 6 7 7 7 7 7 7 8 10 13 13 13 11 9 8 7 6 5 4 3 2 2 2 2 3 3 3 4 5 5 6 6 6 5 4 4 5 8 11 13 14 14 14 14 13 12 11 10 9 7 6 5 5 4 4 3 3 3 3 3 3 4 3 3 3 3 3 4 4 4 4 4 4 4 4 4 4 4 5 5 5 5 5 5 4 4 4 5 5
6 6 6 6 7 7 6 6 6 5 5 6 6 6 7 7 7 7 7 8 9 11 12 14 14 12 9 7 6 5 5 4 3 1 1 1 1 1 3 5 6 6 8 9 9 9 9 7 6 5 6 7 8 8 8 8 8 9 9 9 10 9 9 9 8 7 6 5 5 4 4 4 4 4 4 4 4 4 4 4 4 4 4 4 4 4 5 5 5 5 5 5 5 5 5 5 5 5 5 5 5 6 7
6 6 6 6 7 7 6 6 6 6 6 6 6 6 7 7 7 7 8 9 10 12 13 12 11 9 7 5 4 3 2 1 -0 -1 -0 2 2 2 2 4 6 8 10 11 12 11 9 8 7 7 7 7 7 7 6 6 6 6 7 8 8 9 9 9 9 8 7 7 6 6 6 6 6 6 6 6 6 5 5 5 5 5 5 5 5 5 5 5 5 5 5 5 5 5 5 5 5 5 5 5 6 7 8
6 6 6 6 6 6 6 6 6 6 6 6 6 7 7 7 8 8 9 10 11 12 12 9 7 6 5 4 3 2 0 -1 -1 -1 -0 1 3 5 6 6 8 10 10 10 10 10 9 8 8 9 10 10 10 10 9 9 8 9 9 9 9 10 10 10 10 9 9 8 8 8 8 7 7 7 7 7 7 7 6 6 6 6 6 6 6 6 6 6 6 6 6 6 6 6 5 5 5 5 6 6 7 8 8
6 6 6 6 6 6 6 6 6 6 5 6 6 7 7 8 8 8 9 10 11 11 10 8 5 3 3 3 3 2 1 -0 -0 1 2 2 3 5 8 8 7 6 6 4 4 4 5 6 8 10 12 12 13 12 12 11 11 11 11 11 11 11 11 11 11 10 10 9 9 9 8 8 8 8 8 7 7 7 7 7 7 7 7 7 7 7 7 7 7 7 6 6 6 6 6 6 6 6 6 7 8 8 9
6 6 6 6 6 6 6 6 6 5 5 6 6 7 7 8 8 9 10 11 10 9 8 7 5 3 2 2 2 2 2 2 1 2 4 4 3 2 3 1 -1 -3 -5 -7 -5 -1 3 3 6 8 11 11 11 12 12 11 11 11 11 11 11 11 10 10 10 9 9 9 8 8 8 7 7 7 7 7 7 7 7 7 7 7 7 7 7 7 7 7 7 7 7 6 6 6 6 6 6 7 7 8 9 9 10
6 6 6 6 6 6 6 6 5 5 5 6 7 7 8 8 8 9 10 10 9 8 6 5 4 4 2 1 1 1 1 2 2 2 2 4 3 1 1 1 -0 -1 -1 1 3 5 4 5 5 5 8 8 8 8 8 8 8 8 8 8 8 8 8 7 7 7 7 7 7 7 6 6 6 6 7 7 7 7 7 7 7 7 7 7 7 7 7 7 7 7 7 6 6 6 6 7 7 8 9 9 9 9 10
6 6 6 6 6 6 6 5 5 5 5 6 7 8 8 8 9 10 10 10 8 7 6 4 3 3 2 1 0 1 1 2 3 2 2 3 4 4 4 4 5 7 8 14 17 16 11 7 5 4 4 3 3 3 3 3 4 4 5 5 5 5 5 5 5 5 5 5 5 5 5 5 6 6 6 6 6 6 6 6 6 7 7 7 7 8 8 7 7 7 6 6 6 6 7 8 8 9 9 9 9 10 10
6 6 6 6 6 6 6 5 5 4 5 6 7 8 8 9 10 10 11 9 8 6 5 3 2 2 2 2 1 1 2 2 3 3 3 4 5 6 6 8 10 11 14 15 15 14 12 7 5 5 6 3 1 -0 1 1 1 2 2 3 3 3 4 4 4 4 4 4 4 4 4 5 5 5 6 6 6 6 6 6 6 7 7 7 7 8 7 7 7 7 6 6 7 7 8 9 9 10 10 10 10 10 10
6 6 6 7 7 7 7 6 5 4 4 5 7 7 8 9 10 10 10 8 6 4 3 2 2 1 1 1 1 0 0 1 2 3 5 4 5 5 6 8 11 14 16 14 11 9 8 5 4 4 6 5 3 1 0 1 2 2 2 3 3 3 3 3 3 3 3 3 4 4 4 4 5 5 5 5 5 5 6 6 6 7 7 7 7 7 7 7 7 7 7 7 7 8 9 10 10 10 10 10 10 10 10
6 6 7 7 7 7 7 6 5 4 5 6 7 8 9 10 10 9 8 6 4 3 2 2 1 0 -1 -2 -3 -3 -2 1 2 2 3 4 5 5 4 6 8 11 11 9 8 7 6 5 5 5 6 7 6 4 2 2 3 4 4 4 4 4 4 4 4 4 4 4 4 5 5 5 5 5 5 5 5 6 6 6 7 7 7 7 7 8 8 8 7 7 7 8 8 9 10 10 10 10 10 10 11 10 10
6 6 7 7 8 8 8 6 5 5 5 6 7 8 9 9 9 8 7 5 4 3 2 1 1 -1 -3 -5 -6 -4 -1 2 3 2 1 2 2 3 3 4 5 6 5 5 5 6 6 5 6 6 5 6 7 7 5 3 2 3 4 4 4 4 4 4 5 5 5 6 6 6 6 6 6 6 6 6 6 6 6 7 7 7 7 8 8 8 8 8 8 8 8 9 9 10 10 10 10 10 11 11 10 10 9
6 7 7 7 8 8 7 6 5 5 6 6 7 8 9 9 8 7 6 5 4 3 2 1 0 -1 -3 -4 -2 1 2 1 1 1 0 1 1 1 2 4 4 3 2 1 3 5 7 7 6 6 4 5 5 6 7 5 4 2 1 2 3 4 4 5 5 6 6 6 6 6 6 6 6 6 6 6 7 7 7 7 7 8 8 8 8 9 9 9 9 9 9 10 10 10 11 11 11 11 11 10 10 8 7
Height
5838 5839 5840 5840 5842 5843 5844 5845 5845 5846 5847 5849 5849 5850 5850 5851 5851 5852 5852 5852 5853 5854 5854 5855 5855 5855 5856 5856 5857 5857 5857 5858 5858 5858 5858 5858 5858 5858 5858 5858 5857 5857 5857 5856 5856 5856 5857 5857 5856 5856 5856 5856 5856 5856 5856 5856 5856 5856 5855 5855 5855 5855 5855 5854 5854 5854 5853 5853 5853 5852 5852 5851 5851 5851 5850 5850 5850 5849 5849 5848 5848 5847 5846 5846 5845 5845 5844 5844 5843 5843 5842 5842 5841 5840 5840 5839 5838 5838 5837 5836 5835 5835 5834
5837 5838 5839 5840 5840 5841 5843 5844 5844 5845 5846 5847 5848 5849 5849 5850 5850 5851 5851 5851 5852 5853 5853 5854 5854 5855 5855 5855 5856 5856 5856 5857 5857 5857 5857 5857 5857 5857 5857 5857 5856 5856 5856 5855 5855 5855 5856 5856 5856 5855 5855 5855 5855 5855 5855 5855 5855 5855 5855 5855 5855 5854 5854 5854 5853 5853 5853 5852 5852 5852 5851 5851 5850 5850 5850 5849 5849 5849 5848 5848 5847 5846 5846 5845 5845 5844 5844 5843 5843 5842 5841 5841 5840 5840 5839 5838 5838 5837 5836 5835 5835 5834 5833
5836 5837 5837 5838 5839 5840 5841 5842 5843 5844 5845 5846 5847 5848 5848 5849 5850 5850 5850 5850 5851 5852 5852 5853 5853 5854 5854 5855 5855 5855 5855 5856 5856 5856 5856 5856 5856 5856 5856 5856 5856 5855 5855 5855 5855 5855 5855 5855 5855 5855 5855 5855 5855 5855 5854 5854 5854 5854 5854 5854 5854 5853 5853 5853 5853 5852 5852 5852 5851 5851 5851 5850 5850 5850 5849 5849 5849 5848 5848 5847 5846 5846 5845 5845 5844 5844 5843 5842 5842 5841 5841 5840 5840 5839 5838 5837 5837 5836 5835 5834 5834 5833 5832
5835 5835 5836 5837 5838 5839 5840 5841 5842 5843 5844 5845 5846 5846 5847 5848 5848 5849 5849 5850 5850 5850 5851 5851 5852 5853 5853 5854 5854 5854 5855 5855 5855 5855 5855 5855 5855 5855 5855 5855 5855 5854 5854 5854 5854 5854 5854 5854 5854 5854 5854 5854 5854 5854 5854 5853 5853 5853 5853 5853 5853 5853 5852 5852 5852 5852 5852 5851 5851 5850 5850 5850 5850 5849 5849 5848 5848 5847 5847 5846 5846 5845 5845 5844 5844 5843 5842 5842 5841 5840 5840 5839 5839 5838 5837 5836 5836 5835 5834 5833 5832 5832 5831
5833 5834 5835 5835 5836 5838 5839 5840 5841 5842 5843 5844 5845 5845 5846 5846 5847 5847 5848 5849 5849 5850 5850 5850 5851 5852 5852 5853 5853 5853 5854 5854 5854 5854 5854 5855 5854 5854 5854 5854 5854 5853 5853 5853 5853 5853 5853 5853 5853 5853 5853 5853 5853 5853 5853 5852 5852 5853 5852 5852 5852 5852 5852 5851 5851 5851 5850 5850 5850 5850 5850 5849 5849 5848 5848 5847 5847 5847 5846 5846 5845 5845 5844 5843 5843 5842 5841 5841 5840 5840 5839 5838 5838 5837 5836 5835 5835 5834 5833 5832 5831 5830 5830
5832 5833 5833 5834 5835 5836 5837 5838 5840 5841 5842 5843 5844 5845 5845 5845 5845 5846 5847 5847 5848 5848 5849 5850 5850 5850 5851 5851 5852 5852 5853 5853 5853 5853 5853 5854 5853 5853 5853 5853 5853 5852 5852 5852 5852 5852 5852 5852 5852 5852 5852 5852 5852 5852 5852 5852 5852 5851 5851 5851 5851 5851 5851 5850 5850 5850 5850 5850 5850 5849 5849 5849 5848 5848 5847 5847 5846 5846 5845 5845 5844 5844 5843 5842 5842 5841 5840 5840 5839 5839 5838 5837 5837 5836 5835 5834 5834 5833 5832 5831 5830 5829 5828
5830 5831 5832 5833 5834 5835 5836 5837 5838 5840 5841 5842 5843 5844 5845 5845 5844 5845 5845 5846 5847 5847 5848 5848 5849 5850 5850 5850 5851 5851 5851 5852 5852 5852 5852 5852 5852 5852 5852 5852 5851 5851 5851 5851 5851 5851 5851 5851 5851 5851 5851 5851 5851 5851 5851 5851 5851 5851 5850 5850 5850 5850 5850 5850 5850 5849 5849 5849 5849 5848 5848 5848 5847 5847 5846 5846 5845 5845 5845 5844 5843 5843 5842 5841 5841 5840 5840 5839 5838 5838 5837 5836 5835 5835 5834 5833 5832 5831 5831 5830 5829 5828 5827
5829 5830 5830 5831 5832 5834 5835 5836 5837 5839 5840 5840 5841 5843 5844 5844 5843 5844 5845 5845 5846 5846 5847 5847 5848 5848 5849 5849 5850 5850 5850 5851 5851 5851 5851 5851 5851 5851 5851 5851 5850 5850 5850 5850 5850 5850 5850 5850 5850 5850 5850 5850 5850 5850 5850 5850 5850 5850 5850 5850 5849 5849 5849 5849 5849 5848 5848 5848 5848 5847 5847 5847 5846 5846 5845 5845 5845 5844 5844 5843 5842 5842 5841 5840 5840 5839 5838 5838 5837 5836 5836 5835 5834 5834 5833 5832 5831 5830 5829 5829 5827 5826 5825
5827 5828 5829 5830 5831 5832 5834 5835 5836 5837 5838 5839 5840 5841 5843 5843 5842 5843 5843 5844 5845 5845 5846 5846 5847 5847 5848 5848 5849 5849 5849 5850 5850 5850 5850 5850 5850 5850 5850 5850 5849 5849 5849 5849 5849 5850 5850 5850 5850 5849 5850 5850 5850 5850 5850 5850 5849 5849 5849 5849 5848 5848 5848 5848 5848 5847 5847 5847 5847 5847 5846 5846 5845 5845 5845 5844 5844 5843 5843 5842 5841 5841 5840 5839 5839 5838 5837 5837 5836 5835 5835 5834 5833 5832 5832 5831 5830 5829 5828 5827 5826 5825 5824
5826 5827 5828 5828 5830 5831 5832 5834 5835 5836 5837 5838 5839 5840 5840 5841 5842 5842 5842 5843 5843 5844 5845 5845 5846 5846 5847 5847 5847 5848 5848 5849 5849 5849 5849 5849 5849 5849 5849 5848 5848 5848 5848 5848 5848 5849 5849 5849 5849 5848 5848 5849 5849 5849 5849 5849 5848 5848 5848 5848 5848 5847 5847 5847 5847 5847 5846 5846 5846 5846 5845 5845 5845 5844 5844 5843 5843 5842 5842 5841 5840 5840 5839 5838 5838 5837 5836 5835 5835 5834 5834 5833 5832 5831 5830 5830 5829 5828 5827 5826 5825 5824 5823
5825 5826 5827 5827 5828 5830 5831 5832 5834 5835 5836 5837 5837 5838 5839 5840 5840 5841 5841 5842 5842 5843 5843 5844 5845 5845 5845 5846 5846 5847 5847 5847 5848 5848 5848 5848 5848 5848 5848 5847 5847 5847 5847 5847 5847 5848 5848 5848 5847 5847 5847 5848 5848 5848 5848 5848 5848 5847 5847 5847 5847 5846 5846 5846 5846 5846 5845 5845 5845 5845 5844 5844 5844 5843 5842 5842 5842 5841 5840 5840 5839 5839 5838 5837 5836 5836 5835 5835 5834 5833 5832 5831 5831 5830 5829 5828 5827 5826 5825 5824 5823 5822 5821
5823 5825 5825 5826 5827 5828 5830 5831 5832 5833 5835 5835 5836 5837 5838 5838 5839 5840 5840 5840 5841 5841 5842 5843 5843 5844 5845 5845 5845 5845 5846 5846 5846 5847 5847 5847 5847 5847 5846 5846 5846 5845 5845 5846 5846 5847 5847 5847 5846 5846 5846 5846 5846 5846 5847 5847 5846 5846 5846 5846 5846 5845 5845 5845 5845 5845 5845 5844 5844 5844 5843 5843 5842 5842 5841 5841 5840 5840 5839 5839 5838 5837 5837 5836 5835 5835 5834 5833 5832 5832 5831 5830 5830 5829 5828 5827 5826 5825 5824 5823 5822 5821 5820
5822 5823 5824 5825 5826 5827 5828 5830 5831 5832 5833 5834 5835 5836 5836 5837 5838 5838 5839 5839 5840 5840 5841 5842 5842 5843 5843 5844 5844 5844 5845 5845 5845 5845 5846 5846 5846 5846 5845 5845 5845 5845 5845 5845 5845 5846 5846 5846 5845 5845 5845 5845 5845 5845 5845 5845 5845 5845 5845 5845 5845 5845 5845 5844 5844 5844 5844 5843 5843 5843 5842 5842 5841 5841 5840 5840 5840 5839 5838 5837 5837 5836 5835 5835 5834 5833 5833 5832 5831 5830 5830 5829 5828 5827 5826 5825 5825 5824 5822 5821 5820 5819 5818
5820 5821 5822 5823 5825 5826 5827 5828 5830 5830 5832 5833 5834 5834 5835 5836 5836 5837 5838 5838 5838 5839 5840 5840 5841 5842 5842 5842 5843 5843 5844 5844 5844 5844 5845 5845 5845 5845 5844 5844 5844 5843 5843 5844 5844 5845 5845 5845 5845 5844 5844 5844 5845 5845 5845 5845 5845 5844 5844 5844 5844 5844 5844 5843 5843 5843 5843 5842 5842 5841 5841 5841 5840 5840 5839 5839 5838 5838 5837 5836 5836 5835 5834 5834 5833 5832 5831 5831 5830 5829 5828 5828 5827 5826 5825 5824 5823 5822 5821 5820 5819 5818 5816
5818 5820 5821 5822 5823 5824 5825 5827 5828 5829 5830 5831 5832 5833 5834 5835 5835 5835 5836 5837 5837 5838 5838 5839 5840 5840 5841 5841 5842 5842 5842 5843 5843 5843 5843 5843 5844 5843 5843 5843 5843 5842 5842 5842 5843 5843 5844 5844 5843 5843 5843 5843 5843 5843 5843 5843 5843 5843 5843 5843 5843 5843 5842 5842 5842 5842 5841 5841 5841 5840 5840 5840 5839 5839 5838 5838 5837 5836 5836 5835 5835 5834 5833 5832 5832 5831 5830 5830 5829 5828 5827 5826 5825 5825 5824 5822 5821 5820 5819 5818 5817 5816 5815
5817 5818 5819 5820 5821 5823 5824 5825 5827 5828 5829 5830 5831 5832 5832 5833 5834 5835 5835 5835 5836 5836 5837 5838 5839 5839 5840 5840 5840 5841 5841 5841 5842 5842 5842 5842 5842 5842 5842 5842 5841 5841 5841 5841 5842 5842 5842 5842 5842 5842 5842 5842 5842 5842 5842 5842 5842 5842 5842 5842 5842 5841 5841 5841 5841 5840 5840 5840 5840 5839 5839 5838 5838 5837 5837 5836 5836 5835 5835 5834 5833 5833 5832 5831 5830 5830 5829 5828 5827 5826 5826 5825 5824 5823 5822 5821 5820 5819 5818 5816 5815 5814 5813
5815 5816 5818 5819 5820 5821 5823 5824 5825 5826 5827 5828 5829 5830 5831 5832 5832 5833 5834 5834 5834 5835 5836 5836 5837 5838 5838 5839 5839 5840 5840 5840 5840 5840 5841 5841 5841 5841 5841 5841 5840 5840 5840 5840 5840 5841 5841 5841 5841 5841 5841 5841 5841 5841 5841 5841 5841 5841 5841 5841 5840 5840 5840 5840 5840 5840 5839 5839 5839 5838 5838 5837 5837 5836 5836 5835 5835 5834 5833 5833 5832 5831 5830 5830 5829 5828 5827 5827 5826 5825 5824 5823 5822 5821 5820 5819 5818 5817 5816 5815 5814 5813 5811
5813 5815 5816 5817 5819 5820 5821 5823 5824 5825 5826 5827 5828 5829 5830 5830 5831 5832 5832 5833 5833 5834 5834 5835 5836 5836 5837 5837 5838 5838 5839 5839 5839 5839 5839 5840 5840 5840 5840 5840 5839 5839 5839 5839 5839 5840 5840 5840 5840 5840 5840 5840 5840 5840 5840 5840 5840 5840 5840 5840 5839 5839 5839 5839 5839 5838 5838 5838 5837 5837 5836 5836 5835 5835 5834 5834 5833 5833 5832 5831 5831 5830 5829 5828 5828 5827 5826 5825 5825 5824 5823 5822 5821 5820 5819 5818 5817 5815 5815 5813 5812 5811 5810
5811 5813 5814 5815 5817 5818 5820 5821 5822 5824 5825 5826 5827 5827 5828 5829 5830 5830 5830 5831 5831 5832 5833 5834 5834 5835 5835 5836 5836 5837 5837 5837 5838 5838 5838 5838 5839 5839 5839 5838 5838 5837 5837 5838 5838 5838 5839 5839 5839 5839 5839 5839 5839 5839 5839 5839 5839 5839 5839 5838 5838 5838 5838 5838 5837 5837 5837 5836 5836 5835 5835 5835 5834 5834 5833 5832 5832 5831 5831 5830 5829 5829 5828 5827 5826 5825 5825 5824 5823 5822 5821 5820 5819 5818 5817 5816 5815 5814 5813 5811 5810 5809 5808
5810 5811 5813 5814 5815 5817 5818 5820 5821 5822 5823 5824 5825 5826 5827 5828 5828 5829 5829 5830 5830 5830 5831 5832 5833 5834 5834 5835 5835 5835 5836 5836 5836 5836 5837 5837 5837 5837 5837 5837 5836 5836 5836 5836 5837 5837 5837 5837 5837 5837 5838 5838 5838 5838 5838 5837 5837 5837 5837 5837 5837 5837 5836 5836 5836 5836 5835 5835 5835 5834 5834 5833 5833 5832 5832 5831 5830 5830 5829 5829 5828 5827 5826 5825 5825 5824 5823 5822 5821 5820 5820 5819 5818 5817 5815 5815 5813 5812 5811 5810 5809 5807 5806
5808 5810 5811 5812 5814 5815 5816 5818 5819 5820 5822 5823 5824 5825 5825 5826 5827 5827 5828 5828 5828 5829 5830 5830 5831 5832 5833 5833 5834 5834 5835 5835 5835 5835 5835 5835 5836 5836 5836 5835 5835 5835 5835 5835 5835 5836 5836 5836 5836 5836 5836 5836 5836 5836 5836 5836 5836 5836 5836 5836 5836 5835 5835 5835 5835 5835 5834 5834 5833 5833 5833 5832 5831 5831 5830 5830 5829 5829 5828 5827 5826 5826 5825 5824 5823 5822 5822 5821 5820 5819 5818 5817 5816 5815 5814 5813 5811 5810 5809 5808 5807 5805 5804
5807 5808 5809 5810 5812 5814 5815 5816 5818 5819 5820 5821 5822 5823 5824 5825 5825 5825 5826 5826 5827 5827 5828 5829 5830 5831 5831 5832 5832 5833 5833 5833 5833 5834 5834 5834 5834 5835 5835 5834 5834 5834 5834 5834 5834 5835 5835 5835 5835 5835 5835 5835 5835 5835 5835 5835 5835 5835 5835 5835 5834 5834 5834 5834 5833 5833 5833 5832 5832 5832 5831 5830 5830 5829 5829 5828 5828 5827 5826 5826 5825 5824 5824 5823 5822 5821 5820 5819 5818 5817 5816 5815 5814 5813 5812 5811 5810 5809 5807 5806 5805 5804 5802
5805 5806 5807 5809 5810 5812 5813 5815 5816 5817 5819 5820 5821 5821 5822 5823 5823 5824 5825 5825 5825 5826 5826 5828 5829 5830 5830 5830 5831 5831 5831 5832 5832 5832 5832 5833 5833 5833 5833 5833 5833 5832 5832 5832 5833 5833 5834 5834 5834 5834 5834 5834 5834 5834 5834 5834 5834 5833 5833 5833 5833 5833 5833 5832 5832 5831 5831 5831 5830 5830 5830 5829 5829 5828 5827 5827 5826 5826 5825 5824 5824 5823 5822 5821 5820 5820 5819 5818 5816 5815 5815 5814 5813 5811 5810 5809 5808 5807 5805 5804 5803 5801 5800
5803 5805 5805 5807 5808 5810 5811 5813 5814 5815 5817 5818 5819 5820 5821 5821 5822 5822 5823 5823 5824 5824 5825 5826 5827 5828 5829 5829 5830 5830 5830 5830 5830 5831 5831 5831 5831 5832 5832 5831 5831 5831 5831 5831 5831 5832 5832 5833 5832 5832 5832 5832 5832 5832 5832 5832 5832 5832 5832 5832 5832 5831 5831 5831 5830 5830 5830 5829 5829 5829 5828 5828 5827 5826 5826 5825 5825 5824 5824 5823 5822 5821 5821 5820 5819 5818 5817 5816 5815 5814 5813 5812 5811 5810 5808 5807 5806 5805 5804 5802 5801 5800 5798
5802 5803 5804 5805 5806 5808 5809 5811 5812 5814 5815 5816 5817 5818 5819 5820 5820 5821 5821 5822 5822 5823 5824 5825 5826 5827 5827 5828 5828 5828 5829 5829 5829 5830 5830 5830 5830 5830 5830 5830 5830 5830 5830 5830 5830 5831 5831 5831 5831 5831 5831 5831 5831 5831 5831 5831 5831 5831 5830 5830 5830 5830 5830 5830 5829 5829 5828 5828 5828 5827 5827 5826 5825 5825 5825 5824 5823 5823 5822 5821 5821 5820 5819 5818 5817 5816 5815 5814 5813 5812 5811 5810 5809 5808 5806 5805 5804 5803 5801 5800 5799 5797 5796
5800 5801 5802 5803 5805 5806 5807 5809 5811 5812 5813 5815 5815 5817 5817 5818 5819 5819 5820 5820 5821 5821 5822 5823 5824 5825 5826 5826 5826 5827 5827 5828 5828 5828 5828 5829 5829 5829 5829 5829 5829 5828 5828 5828 5829 5830 5830 5830 5830 5830 5830 5830 5830 5830 5830 5830 5830 5829 5829 5829 5829 5829 5828 5828 5828 5827 5827 5826 5826 5826 5825 5825 5824 5824 5823 5823 5822 5821 5821 5820 5819 5819 5818 5817 5816 5815 5814 5812 5811 5810 5809 5808 5807 5806 5805 5803 5802 5801 5800 5798 5797 5795 5794
5798 5800 5800 5802 5803 5804 5805 5807 5809 5810 5812 5813 5814 5815 5816 5816 5817 5818 5818 5819 5819 5820 5821 5822 5823 5824 5824 5825 5825 5825 5826 5826 5826 5827 5827 5827 5827 5828 5828 5827 5827 5827 5827 5827 5828 5828 5829 5829 5829 5828 5828 5828 5828 5828 5828 5828 5828 5828 5828 5828 5827 5827 5827 5827 5826 5826 5826 5825 5825 5824 5824 5823 5823 5822 5822 5821 5820 5820 5819 5819 5818 5817 5816 5815 5814 5813 5812 5811 5810 5809 5807 5806 5805 5804 5803 5801 5800 5799 5797 5796 5795 5793 5792
5797 5798 5799 5800 5801 5802 5804 5805 5807 5809 5810 5811 5812 5813 5814 5815 5815 5816 5817 5817 5818 5819 5820 5820 5821 5822 5823 5823 5824 5824 5824 5825 5825 5825 5825 5826 5826 5826 5826 5826 5826 5825 5825 5826 5826 5827 5827 5827 5827 5827 5827 5827 5827 5827 5827 5827 5827 5827 5826 5826 5826 5826 5825 5825 5825 5825 5824 5824 5823 5823 5822 5822 5821 5821 5820 5820 5819 5818 5818 5817 5816 5815 5814 5813 5812 5811 5810 5809 5808 5807 5805 5804 5803 5802 5800 5799 5798 5796 5795 5794 5792 5791 5789
5795 5796 5797 5799 5800 5801 5802 5804 5805 5807 5809 5810 5810 5811 5812 5813 5814 5815 5815 5816 5816 5817 5818 5819 5820 5820 5821 5821 5822 5822 5823 5823 5824 5824 5824 5824 5825 5825 5825 5825 5824 5824 5824 5824 5825 5825 5826 5826 5826 5826 5825 5825 5825 5825 5825 5825 5825 5825 5825 5825 5824 5824 5824 5824 5823 5823 5823 5822 5822 5821 5820 5820 5820 5819 5819 5818 5817 5817 5816 5815 5815 5814 5813 5811 5810 5809 5808 5807 5806 5805 5804 5802 5801 5800 5799 5797 5796 5795 5793 5792 5790 5789 5787
5793 5794 5796 5797 5798 5800 5801 5802 5804 5805 5807 5808 5809 5810 5810 5811 5812 5813 5814 5814 5815 5816 5817 5818 5818 5819 5820 5820 5820 5821 5821 5822 5822 5822 5822 5823 5823 5823 5823 5823 5823 5823 5823 5823 5823 5824 5824 5825 5825 5824 5824 5824 5824 5824 5824 5824 5824 5824 5823 5823 5823 5823 5822 5822 5822 5821 5821 5820 5820 5820 5819 5819 5818 5817 5817 5816 5815 5815 5814 5814 5813 5812 5811 5810 5809 5807 5806 5805 5804 5803 5802 5800 5799 5798 5796 5795 5794 5792 5791 5790 5788 5786 5785
5791 5793 5794 5795 5797 5798 5799 5800 5802 5803 5805 5806 5807 5808 5809 5810 5810 5811 5812 5813 5813 5814 5815 5816 5817 5817 5818 5819 5819 5819 5820 5820 5820 5820 5821 5821 5821 5822 5822 5822 5822 5821 5821 5821 5822 5822 5823 5823 5823 5823 5823 5823 5823 5823 5822 5822 5822 5822 5822 5821 5821 5821 5821 5820 5820 5820 5820 5819 5818 5818 5817 5817 5816 5816 5815 5815 5814 5813 5812 5812 5811 5810 5809 5808 5807 5805 5804 5803 5802 5801 5800 5798 5797 5796 5794 5793 5792 5790 5789 5787 5786 5784 5782
5790 5791 5792 5794 5795 5797 5798 5799 5800 5801 5803 5805 5806 5807 5807 5808 5809 5810 5810 5811 5812 5813 5814 5815 5815 5816 5816 5817 5817 5818 5818 5819 5819 5819 5819 5820 5820 5820 5820 5821 5820 5820 5820 5820 5820 5821 5821 5821 5822 5822 5821 5821 5821 5821 5821 5821 5821 5820 5820 5820 5820 5820 5819 5819 5819 5818 5818 5817 5817 5816 5815 5815 5815 5814 5813 5813 5812 5811 5810 5810 5809 5808 5807 5806 5805 5803 5802 5801 5800 5799 5797 5796 5795 5794 5792 5791 5790 5788 5787 5785 5783 5782 5780
5788 5790 5791 5792 5794 5795 5796 5797 5799 5800 5801 5803 5804 5805 5806 5807 5807 5808 5809 5810 5810 5811 5812 5813 5814 5814 5815 5815 5816 5816 5817 5817 5817 5817 5818 5818 5818 5819 5819 5819 5819 5819 5819 5819 5819 5819 5820 5820 5820 5820 5820 5820 5820 5820 5820 5819 5819 5819 5819 5818 5818 5818 5818 5817 5817 5816 5816 5815 5815 5815 5814 5813 5813 5812 5811 5811 5810 5810 5809 5808 5807 5806 5805 5804 5803 5801 5800 5799 5798 5797 5795 5794 5793 5791 5790 5789 5787 5786 5784 5783 5781 5779 5777
5787 5788 5790 5791 5792 5794 5795 5796 5797 5798 5799 5801 5802 5804 5805 5805 5806 5806 5807 5808 5809 5810 5811 5811 5812 5813 5813 5814 5815 5815 5815 5815 5815 5816 5816 5816 5817 5817 5818 5818 5818 5818 5817 5817 5818 5818 5818 5819 5819 5819 5819 5819 5818 5818 5818 5817 5817 5817 5817 5817 5816 5816 5816 5815 5815 5815 5814 5814 5813 5813 5812 5812 5811 5810 5810 5809 5808 5808 5807 5806 5805 5804 5803 5802 5800 5799 5798 5797 5796 5795 5793 5792 5790 5789 5788 5786 5785 5784 5782 5780 5779 5777 5775
5785 5787 5788 5790 5791 5792 5794 5795 5795 5796 5798 5799 5800 5802 5803 5804 5804 5805 5806 5807 5807 5808 5809 5810 5810 5811 5812 5812 5813 5813 5814 5814 5814 5814 5815 5815 5815 5816 5816 5817 5817 5817 5816 5816 5816 5816 5817 5817 5817 5818 5817 5817 5817 5816 5816 5816 5815 5815 5815 5815 5815 5815 5814 5814 5814 5813 5813 5812 5812 5811 5810 5810 5809 5809 5808 5807 5806 5805 5805 5804 5803 5802 5800 5800 5798 5797 5796 5795 5794 5792 5791 5790 5788 5787 5785 5784 5783 5781 5780 5778 5776 5774 5772
5784 5785 5787 5788 5790 5791 5792 5793 5794 5795 5796 5797 5799 5800 5801 5802 5803 5803 5804 5805 5806 5807 5808 5808 5809 5810 5810 5811 5811 5812 5812 5812 5812 5813 5813 5813 5814 5814 5815 5815 5815 5815 5815 5815 5815 5815 5815 5815 5816 5816 5816 5815 5815 5815 5815 5814 5814 5814 5813 5813 5813 5813 5813 5812 5812 5811 5811 5810 5810 5809 5809 5808 5807 5807 5806 5805 5805 5804 5803 5802 5801 5800 5798 5797 5796 5795 5794 5793 5791 5790 5789 5787 5786 5785 5783 5782 5780 5779 5777 5775 5774 5772 5770
5782 5784 5785 5787 5788 5790 5791 5792 5793 5794 5795 5796 5797 5799 5800 5800 5801 5802 5803 5804 5805 5805 5806 5807 5808 5808 5809 5810 5810 5810 5810 5811 5811 5811 5811 5812 5812 5813 5813 5814 5814 5814 5814 5814 5814 5814 5814 5814 5814 5814 5814 5814 5814 5813 5813 5812 5812 5812 5812 5812 5811 5811 5811 5810 5810 5810 5809 5809 5808 5807 5807 5806 5805 5805 5804 5803 5802 5801 5800 5800 5799 5797 5796 5795 5794 5793 5791 5790 5789 5788 5786 5785 5784 5782 5781 5779 5778 5776 5775 5773 5771 5769 5767
5780 5782 5784 5785 5787 5788 5790 5790 5791 5792 5793 5794 5796 5797 5798 5799 5800 5800 5801 5802 5803 5804 5805 5805 5806 5807 5807 5808 5808 5809 5809 5809 5810 5810 5810 5810 5811 5811 5812 5812 5813 5813 5813 5813 5812 5812 5812 5812 5812 5812 5812 5812 5812 5812 5811 5811 5810 5810 5810 5810 5810 5810 5809 5809 5808 5808 5807 5807 5806 5805 5805 5804 5804 5803 5802 5801 5800 5800 5798 5797 5796 5795 5794 5793 5792 5790 5789 5788 5787 5785 5784 5783 5781 5780 5778 5777 5775 5774 5772 5770 5768 5767 5765
5779 5780 5782 5784 5785 5787 5788 5789 5790 5791 5792 5793 5794 5795 5796 5797 5798 5799 5800 5801 5801 5802 5803 5804 5805 5805 5806 5806 5807 5807 5807 5808 5808 5809 5809 5809 5810 5810 5810 5811 5811 5811 5811 5811 5811 5811 5810 5810 5810 5810 5810 5810 5810 5810 5810 5809 5809 5809 5809 5808 5808 5807 5807 5807 5806 5806 5805 5805 5804 5804 5803 5802 5801 5801 5800 5799 5798 5797 5796 5795 5794 5793 5792 5790 5789 5788 5787 5785 5784 5783 5781 5780 5779 5777 5776 5774 5773 5771 5769 5768 5766 5764 5762
5777 5779 5780 5782 5784 5785 5787 5788 5789 5789 5790 5791 5792 5793 5795 5795 5796 5797 5798 5799 5800 5801 5802 5803 5803 5804 5804 5805 5805 5805 5806 5806 5807 5807 5807 5808 5808 5809 5809 5810 5810 5810 5810 5810 5810 5809 5809 5809 5809 5809 5809 5809 5809 5808 5808 5807 5807 5807 5807 5806 5806 5805 5805 5805 5805 5804 5803 5803 5802 5802 5801 5800 5800 5799 5798 5797 5796 5795 5794 5793 5792 5790 5789 5788 5787 5786 5785 5783 5782 5780 5779 5778 5776 5775 5773 5772 5770 5768 5767 5765 5763 5761 5759
5776 5777 5779 5781 5783 5784 5785 5786 5787 5788 5788 5789 5790 5792 5793 5794 5795 5796 5797 5798 5799 5800 5800 5801 5801 5802 5803 5803 5803 5804 5804 5805 5805 5805 5806 5806 5807 5807 5808 5808 5808 5809 5809 5809 5808 5808 5807 5807 5807 5807 5807 5807 5806 5806 5806 5806 5805 5805 5805 5804 5804 5804 5803 5803 5803 5802 5801 5801 5800 5800 5799 5798 5798 5797 5796 5795 5794 5793 5791 5790 5789 5788 5787 5786 5785 5783 5782 5781 5779 5778 5776 5775 5774 5772 5771 5769 5767 5765 5764 5762 5760 5758 5756
5774 5776 5778 5780 5781 5783 5784 5785 5785 5786 5786 5787 5789 5790 5792 5793 5794 5795 5795 5796 5797 5798 5799 5799 5800 5800 5801 5801 5802 5802 5803 5803 5804 5804 5805 5805 5805 5806 5806 5806 5807 5807 5807 5807 5807 5806 5806 5806 5805 5805 5805 5805 5805 5804 5804 5804 5804 5803 5803 5803 5802 5802 5801 5801 5801 5800 5800 5799 5798 5798 5797 5796 5795 5795 5794 5792 5791 5790 5789 5788 5787 5786 5785 5784 5782 5781 5780 5778 5777 5775 5774 5773 5771 5770 5768 5766 5765 5763 5761 5759 5757 5755 5753
5772 5774 5776 5778 5780 5781 5783 5783 5784 5784 5785 5786 5787 5789 5790 5791 5792 5793 5794 5795 5795 5796 5797 5798 5798 5799 5799 5800 5800 5801 5801 5802 5802 5803 5803 5804 5804 5805 5805 5805 5805 5805 5805 5805 5805 5805 5805 5804 5804 5803 5803 5803 5802 5802 5802 5802 5802 5801 5801 5801 5800 5800 5800 5799 5799 5798 5798 5797 5796 5796 5795 5794 5793 5792 5791 5790 5789 5788 5787 5786 5785 5784 5782 5781 5780 5778 5777 5775 5774 5773 5771 5770 5769 5767 5765 5763 5762 5760 5758 5756 5754 5752 5750
5771 5773 5775 5776 5778 5780 5781 5782 5782 5783 5783 5785 5786 5787 5789 5790 5791 5792 5792 5793 5794 5795 5795 5796 5796 5797 5797 5798 5799 5800 5800 5801 5801 5801 5802 5802 5803 5803 5804 5804 5804 5804 5804 5804 5804 5804 5803 5803 5802 5802 5801 5801 5800 5800 5800 5800 5800 5800 5799 5799 5799 5798 5798 5798 5797 5796 5796 5795 5794 5794 5793 5792 5791 5790 5789 5788 5787 5785 5785 5784 5782 5781 5780 5779 5777 5776 5774 5773 5771 5770 5769 5767 5766 5764 5762 5760 5759 5757 5755 5753 5751 5749 5747
5769 5771 5773 5775 5777 5778 5779 5780 5780 5781 5782 5783 5785 5786 5787 5788 5789 5790 5790 5791 5792 5793 5794 5794 5795 5795 5796 5796 5797 5798 5799 5799 5800 5800 5801 5801 5802 5802 5802 5802 5802 5802 5802 5802 5802 5802 5802 5801 5801 5800 5800 5799 5799 5799 5798 5798 5798 5797 5797 5797 5797 5796 5796 5796 5795 5795 5794 5793 5792 5791 5790 5790 5789 5788 5787 5785 5785 5784 5782 5781 5780 5779 5778 5776 5775 5773 5771 5770 5769 5767 5766 5765 5763 5761 5759 5757 5755 5754 5752 5750 5748 5746 5744
5767 5769 5771 5773 5775 5777 5778 5778 5779 5780 5781 5782 5783 5785 5786 5787 5787 5788 5789 5790 5790 5791 5792 5793 5793 5794 5794 5795 5796 5797 5797 5798 5798 5799 5800 5800 5800 5800 5801 5801 5801 5801 5801 5801 5800 5800 5800 5800 5799 5799 5798 5798 5797 5797 5796 5796 5795 5795 5795 5795 5795 5794 5794 5794 5793 5792 5792 5791 5790 5789 5788 5787 5786 5785 5785 5784 5782 5781 5780 5779 5778 5777 5775 5774 5772 5770 5769 5767 5766 5765 5763 5762 5760 5758 5756 5755 5753 5751 5749 5747 5745 5743 5741
5766 5767 5770 5772 5774 5775 5776 5777 5777 5778 5780 5781 5782 5783 5784 5785 5786 5786 5787 5788 5789 5790 5790 5791 5792 5792 5793 5794 5795 5795 5796 5796 5797 5798 5798 5799 5799 5799 5799 5799 5799 5799 5799 5799 5799 5798 5798 5798 5797 5797 5797 5796 5795 5795 5795 5794 5794 5793 5793 5793 5792 5792 5792 5791 5791 5790 5790 5789 5788 5787 5786 5785 5784 5783 5782 5781 5780 5779 5778 5777 5776 5774 5773 5771 5769 5768 5766 5765 5763 5762 5760 5759 5757 5755 5753 5752 5750 5748 5746 5744 5742 5740 5738
5764 5766 5768 5770 5772 5773 5774 5775 5776 5777 5778 5780 5780 5781 5782 5783 5784 5785 5785 5786 5787 5788 5789 5790 5790 5791 5792 5793 5793 5794 5795 5795 5796 5796 5797 5797 5797 5798 5798 5798 5798 5798 5797 5797 5797 5797 5796 5796 5796 5795 5795 5795 5794 5793 5793 5792 5792 5791 5791 5791 5790 5790 5790 5789 5789 5788 5787 5786 5785 5785 5784 5783 5782 5780 5780 5779 5778 5777 5775 5774 5773 5771 5770 5768 5767 5765 5763 5762 5760 5759 5757 5756 5754 5752 5750 5749 5747 5745 5743 5741 5739 5737 5735
5762 5764 5766 5768 5770 5771 5773 5774 5775 5776 5777 5778 5779 5780 5781 5781 5782 5783 5784 5785 5786 5786 5787 5788 5789 5790 5790 5791 5792 5793 5793 5794 5795 5795 5795 5795 5795 5796 5796 5796 5796 5796 5796 5795 5795 5795 5795 5795 5794 5794 5793 5793 5792 5792 5791 5791 5790 5790 5790 5789 5789 5788 5788 5787 5786 5785 5785 5784 5783 5782 5781 5780 5779 5778 5777 5776 5775 5774 5773 5771 5770 5769 5767 5765 5764 5762 5760 5759 5758 5756 5754 5753 5751 5749 5747 5745 5743 5741 5740 5738 5736 5734 5732
5761 5763 5765 5766 5768 5770 5771 5772 5773 5775 5775 5776 5777 5778 5779 5780 5781 5782 5783 5784 5784 5785 5786 5787 5787 5788 5789 5790 5790 5791 5792 5792 5793 5793 5794 5794 5794 5794 5794 5794 5795 5795 5794 5794 5794 5793 5793 5793 5792 5792 5791 5791 5790 5790 5790 5789 5789 5788 5788 5787 5787 5786 5786 5785 5784 5783 5783 5782 5781 5780 5779 5778 5777 5775 5775 5773 5772 5771 5770 5769 5767 5765 5764 5762 5761 5759 5758 5756 5755 5753 5751 5750 5748 5746 5744 5742 5740 5738 5736 5734 5732 5730 5729
5760 5761 5763 5765 5766 5768 5769 5770 5772 5773 5774 5775 5776 5777 5778 5779 5780 5780 5781 5782 5783 5784 5785 5785 5786 5787 5787 5788 5789 5790 5790 5791 5791 5792 5792 5792 5792 5792 5793 5793 5793 5792 5792 5792 5792 5792 5791 5791 5790 5790 5790 5789 5789 5788 5788 5787 5787 5786 5786 5785 5785 5784 5784 5783 5782 5781 5780 5780 5779 5777 5776 5775 5774 5773 5772 5771 5770 5768 5767 5766 5764 5763 5761 5759 5758 5756 5755 5753 5751 5750 5748 5746 5745 5743 5741 5739 5737 5735 5733 5731 5729 5727 5725
5758 5760 5761 5763 5765 5766 5768 5769 5770 5772 5773 5774 5775 5775 5776 5777 5778 5779 5780 5780 5781 5782 5783 5784 5785 5785 5786 5787 5788 5789 5789 5790 5790 5790 5790 5790 5791 5791 5791 5791 5791 5791 5791 5790 5790 5790 5790 5790 5789 5789 5788 5788 5787 5786 5786 5785 5785 5784 5784 5783 5783 5782 5781 5780 5780 5779 5778 5777 5776 5775 5774 5773 5772 5770 5770 5768 5767 5766 5764 5763 5761 5760 5758 5756 5755 5753 5751 5750 5748 5746 5745 5743 5741 5739 5737 5735 5733 5731 5730 5728 5726 5724 5722
5756 5758 5760 5761 5763 5765 5766 5768 5769 5770 5771 5772 5773 5774 5775 5776 5777 5777 5778 5779 5780 5780 5781 5782 5783 5784 5785 5786 5786 5787 5787 5788 5788 5789 5789 5789 5789 5789 5789 5790 5790 5790 5790 5789 5789 5788 5788 5787 5787 5787 5787 5786 5785 5785 5784 5783 5783 5782 5782 5781 5780 5780 5779 5778 5777 5777 5776 5775 5774 5773 5771 5770 5769 5768 5767 5765 5764 5763 5761 5760 5758 5757 5755 5753 5752 5750 5748 5747 5745 5743 5741 5740 5738 5736 5734 5732 5730 5728 5726 5725 5723 5721 5719
5755 5757 5758 5760 5761 5763 5765 5766 5768 5769 5770 5771 5772 5772 5773 5774 5775 5776 5777 5778 5778 5779 5780 5781 5782 5783 5783 5784 5785 5785 5786 5786 5787 5787 5787 5788 5788 5787 5788 5788 5788 5788 5787 5787 5787 5786 5786 5786 5785 5785 5785 5785 5784 5783 5782 5781 5781 5780 5780 5779 5778 5778 5777 5776 5775 5775 5773 5772 5771 5770 5769 5768 5767 5765 5764 5763 5762 5760 5759 5757 5755 5754 5752 5750 5749 5747 5745 5744 5742 5740 5739 5737 5735 5733 5731 5729 5727 5725 5723 5721 5720 5718 5716
5754 5755 5757 5758 5760 5762 5764 5765 5766 5767 5768 5769 5770 5771 5772 5773 5774 5775 5775 5776 5777 5778 5779 5780 5781 5781 5782 5782 5783 5784 5785 5785 5785 5785 5785 5785 5786 5786 5786 5786 5786 5786 5785 5785 5785 5785 5785 5785 5784 5784 5783 5783 5782 5781 5780 5780 5779 5778 5778 5777 5776 5775 5775 5774 5773 5772 5771 5770 5769 5768 5766 5765 5764 5763 5762 5760 5759 5757 5756 5754 5752 5751 5749 5747 5746 5744 5743 5741 5739 5737 5736 5734 5732 5730 5728 5726 5724 5722 5720 5718 5716 5715 5713
5752 5754 5755 5757 5759 5760 5762 5764 5765 5766 5767 5767 5768 5769 5770 5771 5772 5773 5774 5775 5775 5776 5777 5778 5779 5780 5780 5781 5781 5782 5783 5783 5783 5783 5783 5784 5784 5784 5784 5784 5784 5784 5784 5783 5783 5783 5783 5783 5782 5782 5781 5781 5780 5779 5779 5778 5777 5776 5776 5775 5774 5774 5773 5772 5771 5770 5769 5768 5766 5765 5764 5763 5762 5760 5759 5758 5756 5754 5753 5751 5749 5748 5746 5745 5743 5741 5740 5738 5736 5735 5733 5731 5729 5727 5725 5723 5721 5719 5717 5715 5714 5712 5710
5750 5752 5754 5755 5757 5759 5761 5762 5763 5764 5765 5766 5767 5767 5769 5770 5771 5772 5772 5773 5774 5775 5776 5777 5778 5778 5779 5780 5780 5780 5781 5781 5781 5781 5781 5782 5782 5782 5782 5782 5782 5782 5782 5782 5781 5781 5781 5781 5781 5780 5779 5779 5778 5777 5777 5776 5775 5775 5774 5773 5772 5771 5770 5769 5768 5767 5766 5765 5764 5763 5762 5760 5759 5758 5756 5755 5753 5751 5750 5748 5746 5745 5743 5742 5740 5739 5737 5735 5734 5732 5730 5728 5726 5725 5723 5720 5718 5716 5714 5712 5710 5709 5707
5749 5750 5752 5754 5756 5758 5759 5760 5762 5763 5763 5764 5765 5766 5767 5768 5769 5770 5771 5772 5773 5773 5774 5775 5776 5777 5777 5778 5779 5779 5779 5779 5779 5780 5780 5780 5780 5780 5780 5781 5781 5781 5780 5780 5780 5780 5779 5779 5778 5778 5777 5776 5776 5775 5775 5774 5774 5773 5772 5771 5770 5769 5768 5767 5766 5765 5764 5763 5761 5760 5759 5758 5756 5755 5753 5752 5750 5749 5747 5745 5744 5742 5740 5739 5738 5736 5734 5732 5731 5729 5727 5725 5724 5722 5720 5718 5715 5714 5711 5710 5708 5706 5704
5747 5749 5750 5752 5754 5756 5758 5759 5760 5761 5762 5763 5763 5765 5765 5766 5767 5769 5769 5770 5771 5772 5773 5774 5774 5775 5775 5776 5776 5777 5777 5777 5778 5778 5778 5778 5779 5779 5779 5779 5779 5779 5779 5779 5778 5778 5777 5777 5776 5776 5775 5774 5774 5773 5773 5772 5771 5771 5770 5769 5768 5766 5765 5765 5764 5762 5761 5760 5759 5758 5756 5755 5753 5752 5750 5749 5747 5746 5744 5742 5741 5739 5738 5736 5735 5733 5731 5730 5728 5726 5724 5722 5721 5719 5717 5715 5713 5711 5709 5706 5705 5703 5700
5746 5747 5749 5751 5753 5755 5756 5757 5758 5759 5760 5761 5762 5763 5764 5765 5766 5767 5768 5769 5770 5770 5771 5772 5772 5773 5773 5774 5775 5775 5775 5776 5776 5776 5776 5776 5777 5777 5777 5777 5777 5777 5777 5777 5776 5776 5775 5774 5774 5773 5773 5772 5771 5771 5770 5770 5770 5769 5768 5766 5765 5764 5763 5762 5761 5760 5758 5757 5756 5755 5753 5752 5750 5749 5748 5746 5745 5743 5741 5740 5738 5736 5735 5733 5732 5730 5728 5726 5725 5723 5721 5720 5718 5716 5715 5713 5710 5708 5706 5704 5701 5699 5697
5745 5746 5748 5750 5751 5753 5754 5755 5756 5757 5758 5759 5760 5761 5762 5763 5764 5765 5766 5767 5768 5769 5769 5770 5770 5771 5771 5772 5773 5773 5774 5774 5774 5775 5775 5775 5775 5775 5775 5775 5775 5775 5775 5775 5774 5774 5773 5772 5772 5771 5770 5770 5770 5769 5768 5768 5767 5766 5765 5764 5763 5761 5760 5759 5758 5757 5755 5754 5753 5752 5750 5749 5748 5746 5745 5743 5742 5740 5739 5737 5735 5734 5732 5730 5729 5727 5725 5723 5721 5720 5718 5717 5715 5714 5712 5710 5708 5705 5703 5700 5698 5696 5694